Simultaneous Nadir Overpasses (SNOs) Predictions

Prediction of SNOs between GOES-16 and METOP-B Satellite Orbit:

Table of predicted SNOs for the next 14.0 days since TLE Epoch: 5/14/2022
Index Date Time (GOES-16) GOES-16 Lat,Lon METOP-B Lat,Lon Distance(km) Time Diff (sec)
1 05/15/2022 02:39:09 -0.06, -75.20 -0.42, -76.85 188.14 80
2 05/16/2022 02:15:49 -0.06, -75.21 0.72, -71.86 381.64 80
3 05/17/2022 14:34:40 0.05, -75.23 0.31, -76.42 134.90 80
4 05/18/2022 14:16:39 0.05, -75.24 -0.77, -71.41 434.91 80
5 05/20/2022 02:35:39 -0.04, -75.23 -0.21, -76.02 89.94 80
6 05/21/2022 02:12:19 -0.04, -75.23 0.88, -71.01 480.15 80
7 05/22/2022 14:31:10 0.03, -75.27 0.08, -75.58 35.40 80
8 05/25/2022 02:29:29 -0.03, -75.29 -0.02, -75.17 12.84 80
9 05/27/2022 14:30:20 0.03, -75.35 -0.12, -74.74 70.24 80
